Regional Weather Roundup
Issued by NWS

Home | Current Version | Previous Version | Graphics & Text | Print | Product List | Glossary On
Versions: 1 2 3 4 5 6 7 8 9 10 11 12 13 14 15 16 17 18 19 20 21 22 23 24 25 26 27 28 29 30 31 32 33 34 35 36 37 38 39 40 41 42 43 44 45 46 47 48 49 50
000
ASUS43 KDTX 302310
RWRMI
MICHIGAN HOURLY REGIONAL WEATHER ROUNDUP
NATIONAL WEATHER SERVICE DETROIT/PONTIAC MI
700 PM EDT MON MAY 30 2016

NOTE: "FAIR" INDICATES FEW OR NO CLOUDS BELOW 12,000 FEET WITH NO
SIGNIFICANT WEATHER AND/OR OBSTRUCTION TO VISIBILITY.

MIZ047>049-052>055-059>063-066>070-074>076-081>083-310000-
SOUTHEAST LOWER MICHIGAN

CITY           SKY/WX    TMP DP  RH WIND       PRES   REMARKS
ADRIAN         SUNNY     83  50  31 NW8       29.96F
ALMA           SUNNY     78  49  36 MISG      29.96S
ANN ARBOR      MOSUNNY   79  52  38 NW8       29.95F
BAD AXE        SUNNY     79  50  36 W12       29.94S
CARO           MOSUNNY   79  52  39 NW9       29.93S
DETROIT CITY   MOSUNNY   83  51  33 W10       29.94S
DETROIT        MOSUNNY   83  54  36 NW9       29.94F
FLINT          PTSUNNY   82  53  36 W7        29.95S
GROSSE ILE     SUNNY     73  64  73 S6        29.93F
HILLSDALE      SUNNY     82  39  21 W8        29.98F
HOWELL         SUNNY     80  49  33 W6        29.96S

CITY           SKY/WX    TMP DP  RH WIND       PRES   REMARKS
JACKSON        SUNNY     79  49  34 NW12      29.97F
LAMBERTVILLE   SUNNY     84  49  29 W7        29.95F
LANSING        SUNNY     81  51  35 W9        29.97S
LAPEER         FAIR      79  49  34 NW9       29.95S
MASON          SUNNY     79  52  39 W12       29.97S
MONROE         MOSUNNY   80  61  52 SE5       29.94S
MT. CLEMENS    MOSUNNY   78  59  53 SE7       29.93F
PONTIAC        MOSUNNY   81  52  36 W13       29.95S
PORT HOPE        N/A     78  53  41 VRB6      29.91F
PORT HURON     MOSUNNY   77  57  50 CALM      29.94S
TRI CITIES     SUNNY     81  50  33 W8        29.94S
MIDLAND        FAIR      80  49  34 W7        29.93S
TROY           MOSUNNY   83  51  32 SW8       29.96S
SAGINAW HB     SUNNY     81  45  28 W12       29.93S
$$
MIZ043>046-050>051-056>058-064>065-071>073-077>080-310000-
SOUTHWEST LOWER MICHIGAN

CITY           SKY/WX    TMP DP  RH WIND       PRES   REMARKS
BATTLE CREEK   SUNNY     79  53  40 N7        29.99S
BENTON HARBOR  SUNNY     80  56  43 CALM      29.97F
BIG RAPIDS     SUNNY     76  41  28 N6        29.97S
COLDWATER      SUNNY     80  49  33 NW6       29.98S
FREMONT        FAIR      77  47  34 NW12      29.98R
HOLLAND        SUNNY     79  55  43 W7        29.99F
GRAND RAPIDS   MOSUNNY   81  52  36 W12       29.98S
IONIA          FAIR      79  50  36 W9        29.97R
KALAMAZOO      SUNNY     81  54  39 NW13      29.98F
LUDINGTON      SUNNY     74  58  57 W3        29.99R
MARSHALL       MOSUNNY   80  52  36 NW7       29.97F
MOUNT PLEASANT SUNNY     78  48  34 W8        29.95S
MUSKEGON       MOSUNNY   75  55  49 W9        29.99S
SOUTH HAVEN    SUNNY     78  55  44 NW3       29.99S
$$
MIZ016>042-310000-
NORTHERN LOWER MICHIGAN

CITY           SKY/WX    TMP DP  RH WIND       PRES   REMARKS
ALPENA         SUNNY     76  45  33 NW8G17    29.94S
BEAVER ISLAND  SUNNY     68  50  53 SW7G17    29.95R
BELLAIRE       SUNNY     75  46  36 W6        29.96F
CADILLAC       SUNNY     73  45  36 NW12      29.98S
CHARLEVOIX     SUNNY     73  49  43 SW10      29.98S
FRANKFORT      SUNNY     75  55  48 CALM      29.97S
GAYLORD        SUNNY     73  47  39 VRB6      29.97F
GRAYLING       SUNNY     74  46  37 NW12G20   29.99S
HARBOR SPRINGS SUNNY     71  51  47 W8        29.95F
HOUGHTON LAKE  SUNNY     75  42  30 NW17      29.98R
OSCODA         MOSUNNY   81  40  23 NW17G23   29.92S
PELLSTON       SUNNY     73  48  41 W13       29.95S
ROGERS CITY    SUNNY     73  49  41 W12       29.94S
TRAVERSE CITY  MOSUNNY   78  47  33 NW10      29.95S
$$
MIZ007>008-015-310000-
EASTERN UPPER MICHIGAN

CITY           SKY/WX    TMP DP  RH WIND       PRES   REMARKS
KINROSS          N/A     66  52  59 N15G21    29.93S
MACKINAC ISLAN SUNNY     67  51  57 SW10G21   29.93S
NEWBERRY       SUNNY     70  49  46 NW13G20   29.94S
S. S. MARIE    SUNNY     65  51  60 NW9       29.94S
MUNISING         N/A     68  48  48 NW7       29.94S
$$
MIZ004>006-011>014-085-310000-
CENTRAL UPPER MICHIGAN

CITY           SKY/WX    TMP DP  RH WIND       PRES   REMARKS
MANISTIQUE     CLOUDY    64  53  67 CALM      29.94S
ESCANABA         N/A    N/A N/A N/A MISG        N/A
MENOMINEE      PTSUNNY   80  48  32 VRB6      29.94S
SAWYER-GWINN   MOSUNNY   75  39  27 NW18      29.95S
$$
MIZ001>003-009>011-084-310000-
WESTERN UPPER MICHIGAN

CITY           SKY/WX    TMP DP  RH WIND       PRES   REMARKS
IRON MOUNTAIN  MOSUNNY   78  42  27 NW10      29.94S
HOUGHTON       SUNNY     71  46  40 NW15G22   29.95S
COPPER HARBOR    N/A     60  48  64 N6        29.96R
IRONWOOD       SUNNY     75  45  33 N6        29.93S
$$

ABBREVIATIONS USED IN REMARKS
   TC - TEMPERATURE IN CELSIUS
  WCI - WIND CHILL INDEX
   HX - HEAT INDEX
  VSB - VISIBILITY




USA.gov is the U.S. government's official web portal to all federal, state and local government web resources and services.